Retour au catalogue

STARLINK-3207

ActifCommunicationsVLEO
NORAD 49756·PAYLOAD·🇺🇸 United States

Lancé Dec 2, 2021 depuis Cape Canaveral Space Force Station

Loading…

Prochains Passages (prochaines 24 heures)

TLE

FraisSource: CelesTrak SupGP

Époque: Sep 14, 2026, 20:31 UTC

1 49756C 21115AJ  26257.85534722 -.00019646  00000+0 -58050-3 0  2574
2 49756  53.1591 355.8810 0001192  74.6733 259.3452 15.34397871    19

Suivez STARLINK-3207 en temps réel avec AllMySat

Download on the App Store